User: anonymous   Login
Location: Oshawa
(43.9000°N, 78.8670°W)
Time: 16:40:02
(UTC-04:00)
Language:

Hubble Space Telescope - Orbit

View from above orbital plane
View from above orbital plane
View from above satellite
View from above satellite

Ground track
Ground track

The orbit data is extracted from the following two-line orbital elements,

1 20580U 90037B   17200.95231821 +.00000497 +00000-0 +19620-4 0  9997
2 20580 028.4691 151.0095 0002864 161.8793 251.0898 15.08800632295151
Epoch (UTC): 19 July 2017 22:51:20
Eccentricity: 0.0002864
inclination: 28.4691°
perigee height: 538 km
apogee height: 542 km
right ascension of ascending node: 151.0095°
argument of perigee: 161.8793°
revolutions per day: 15.08800632
mean anomaly at epoch: 251.0898°
orbit number at epoch: 29515

The dashed part of the orbit path shows where the satellite is in the earth's shadow,  

DLR